sat.trackr.live / text

‹ back to catalog

STARLINK-35372

NORAD 66476 · 2025-262W

PAYLOAD ACTIVE UNKNOWN

§ Identity

Operator
Country
US
Launch date
2025-11-15
Launch site
AFETR
Launch vehicle
Mass (kg)
RCS (m²)

Purposes: comms

External: N2YO · Heavens-Above · Gunter

§ Orbital elements

Epoch: 2026-05-24T22:00:39.485088Z

Period
94.27 min
Inclination
42.9982°
Eccentricity
0.0001337
Mean motion
15.27582390 rev/d
Perigee alt
482.1 km
Apogee alt
484.0 km
Semi-major
6,861.2 km
B*
4.0473e-4
RAAN
225.7379°
Arg perigee
280.4611°
Mean anomaly
79.6090°
Rev number
3,045

§ Raw data

STARLINK-353721 66476U 25262W   26144.91712367  .00010893  00000+0  40473-3 0  99902 66476  42.9982 225.7379 0001337 280.4611  79.6090 15.27582390 30451

JSON: /api/v1/satellites/66476 · /tle

For live sub-satellite position, see the globe view (requires WebGL).

§ Visibility from observer

Set your observer location to see the next 7 days of passes ≥ 10°. The values pass through the URL so the page stays shareable.

No JS? Fill the form by hand. The geolocation button needs JavaScript.